Green Bay, WI

10:59 PM CST on November 19, 2017 (GMT -0600)
Austin Straubel International

Weather History for KGRB - March, 2012

Change the Weather History Date:

Thursday, March 8, 2012

  Actual Average Record
Temperature  
Mean Temperature 36 °F 27 °F  
Max Temperature 41 °F 36 °F 74 °F (2000)
Min Temperature 30 °F 19 °F -9 °F (1960)
Degree Days  
Heating Degree Days 29 38  
Month to date heating degree days 262 311  
Since 1 July heating degree days 5106 6151  
Cooling Degree Days 0 0  
Month to date cooling degree days 0 0  
Year to date cooling degree days 0 0  
Moisture  
Dew Point 24 °F    
Average Humidity 72    
Maximum Humidity 100    
Minimum Humidity 44    
Precipitation  
Precipitation 0.03 in 0.05 in 0.73 in (2009)
Month to date precipitation 0.83 0.45  
Year to date precipitation 3.35 2.69  
Snow  
Snow 0.80 in 0.40 in 6.00 in (2009)
Month to date snowfall 8.1 2.8  
Since 1 July snowfall 31.7 43.0  
Snow Depth 0.00 in    
Sea Level Pressure  
Sea Level Pressure 29.99 in    
Wind  
Wind Speed 16 mph (WNW)    
Max Wind Speed 30 mph    
Max Gust Speed 40 mph    
Visibility 9 miles    
Events Snow    
T = Trace of Precipitation, MM = Missing Value Source: NWS Daily Summary

Daily Weather History Graph

Daily Weather History Graph

Search for Another Location

Airport or City:

Trip Planner

Search our weather history database for the weather conditions in past years. The results will help you decide how hot, cold, wet, or windy it might be!

Date:

Astronomy

Mar. 08, 2012 Rise Set
Actual Time 6:16 AM CST 5:50 PM CST
Civil Twilight 5:47 AM CST 6:19 PM CST
Nautical Twilight 5:14 AM CST 6:53 PM CST
Astronomical Twilight 4:40 AM CST 7:27 PM CST
Moon 6:41 PM CST (3/8) 5:57 AM CST (3/8)
Length of Visible Light 12h 31m
Length of Day
11h 33m
Full, 100% of the Moon is Illuminated
Mar 8
Full
Mar 14
Last Quarter
Mar 22
New
Mar 30
First Quarter
Apr 6
Full

Hourly Weather History & Observations

Time (CST) Temp. Windchill Dew Point Humidity Pressure Visibility Wind Dir Wind Speed Gust Speed Precip Events Conditions
12:06 AM 39.2 °F 31.6 °F - N/A% 29.73 in 7.0 mi WNW 12.7 mph - N/A   Overcast
12:53 AM 39.0 °F 31.4 °F - N/A% 29.77 in 9.0 mi WNW 12.7 mph - N/A   Overcast
1:33 AM 39.2 °F 32.0 °F - N/A% 29.78 in 8.0 mi WNW 11.5 mph - N/A   Overcast
1:53 AM 39.2 °F 32.0 °F - N/A% 29.79 in 8.0 mi WNW 11.5 mph - N/A   Overcast
2:53 AM 37.9 °F 30.5 °F 37.9 °F 100% 29.81 in 9.0 mi WNW 11.5 mph - N/A   Overcast
3:53 AM 37.0 °F 29.8 °F 33.1 °F 86% 29.83 in 10.0 mi West 10.4 mph - N/A   Overcast
4:53 AM 37.0 °F 29.3 °F 30.9 °F 79% 29.86 in 10.0 mi WNW 11.5 mph - N/A   Overcast
5:53 AM 36.0 °F 27.5 °F 30.0 °F 79% 29.91 in 10.0 mi WNW 12.7 mph - N/A   Overcast
6:53 AM 35.1 °F 25.5 °F 27.0 °F 72% 29.93 in 10.0 mi WNW 15.0 mph 20.7 mph 0.00 in   Overcast
7:27 AM 33.8 °F 23.5 °F 26.6 °F 75% 29.93 in 10.0 mi NW 16.1 mph 27.6 mph N/A   Overcast
7:53 AM 34.0 °F 23.0 °F 24.1 °F 67% 29.96 in 10.0 mi NW 18.4 mph 26.5 mph N/A   Overcast
8:53 AM 34.0 °F 22.7 °F 21.9 °F 61% 29.98 in 10.0 mi NW 19.6 mph - N/A   Partly Cloudy
9:53 AM 35.1 °F 24.5 °F 23.0 °F 61% 30.00 in 10.0 mi WNW 18.4 mph - N/A   Mostly Cloudy
10:53 AM 36.0 °F 27.1 °F 24.1 °F 62% 30.02 in 10.0 mi WNW 13.8 mph 24.2 mph N/A   Mostly Cloudy
11:53 AM 37.9 °F 27.9 °F 25.0 °F 60% 30.05 in 10.0 mi WNW 19.6 mph 27.6 mph N/A   Partly Cloudy
12:53 PM 39.0 °F 29.6 °F 23.0 °F 53% 30.05 in 10.0 mi NW 18.4 mph - N/A   Clear
1:53 PM 37.9 °F 28.2 °F 21.0 °F 51% 30.05 in 10.0 mi WNW 18.4 mph 29.9 mph N/A   Clear
2:53 PM 37.9 °F 27.1 °F 18.0 °F 45% 30.05 in 10.0 mi West 23.0 mph 29.9 mph N/A   Clear
3:53 PM 37.0 °F 26.2 °F 19.0 °F 48% 30.06 in 10.0 mi West 21.9 mph 28.8 mph N/A   Clear
4:53 PM 36.0 °F 26.7 °F 17.1 °F 46% 30.06 in 10.0 mi West 15.0 mph - N/A   Clear
5:53 PM 35.1 °F 26.9 °F 19.0 °F 52% 30.07 in 10.0 mi West 11.5 mph 20.7 mph N/A   Clear
6:53 PM 34.0 °F 28.0 °F 21.0 °F 59% 30.07 in 10.0 mi WSW 6.9 mph - N/A   Mostly Cloudy
7:53 PM 34.0 °F 26.0 °F 21.0 °F 59% 30.07 in 10.0 mi WSW 10.4 mph - N/A   Overcast
8:53 PM 34.0 °F 22.7 °F 24.1 °F 67% 30.08 in 3.0 mi WNW 19.6 mph 31.1 mph 0.00 in Snow Light Snow
9:00 PM 32.0 °F 20.1 °F 26.6 °F 80% 30.06 in 2.0 mi NW 19.6 mph 32.2 mph 0.00 in Snow Light Snow
9:06 PM 30.2 °F 18.5 °F 26.6 °F 86% 30.06 in 1.2 mi WNW 17.3 mph 32.2 mph 0.00 in Snow Light Snow
9:25 PM 30.2 °F 21.9 °F 26.6 °F 86% 30.04 in 4.0 mi West 9.2 mph - 0.00 in Snow Light Snow
9:53 PM 32.0 °F 20.8 °F 24.1 °F 73% 30.07 in 10.0 mi West 17.3 mph 23.0 mph 0.00 in   Clear
10:16 PM 30.2 °F 18.9 °F 26.6 °F 86% 30.05 in 2.5 mi West 16.1 mph 24.2 mph 0.00 in Snow Light Snow
10:23 PM 30.2 °F 21.3 °F 24.8 °F 80% 30.05 in 9.0 mi West 10.4 mph 24.2 mph 0.00 in   Mostly Cloudy
10:53 PM 30.9 °F 19.8 °F 24.1 °F 76% 30.09 in 10.0 mi West 16.1 mph 23.0 mph 0.00 in   Partly Cloudy
11:20 PM 30.2 °F 20.8 °F 23.0 °F 75% 30.08 in 9.0 mi WNW 11.5 mph - 0.00 in   Overcast
11:38 PM 30.2 °F 17.1 °F 21.2 °F 69% 30.09 in 10.0 mi NW 21.9 mph 28.8 mph 0.00 in   Overcast
11:53 PM 30.0 °F 16.9 °F 19.0 °F 64% 30.12 in 10.0 mi NW 21.9 mph 35.7 mph 0.00 in   Overcast